Voltar ao catálogo

FENGYUN 1C DEB

AtivoSSO
NORAD 29866·DEBRIS·🇨🇳 China

Lançado May 10, 1999 de Taiyuan Satellite Launch Center

Loading…

Próximas Passagens (próximas 24 horas)

TLE

AtualizadoSource: Space-Track

Época: Sep 14, 2026, 11:04 UTC

1 29866U 99025FL  26257.46137659  .00001620  00000-0  23538-3 0  9992
2 29866  98.0625 242.5184 0193292  64.6205  84.6855 14.65381078 43633

Acompanhe FENGYUN 1C DEB em tempo real com AllMySat

Download on the App Store